owner,sensor,date,latitude,longitude,air_pressure(mBar),qcFlag 
COMPS,ioos:station:USF.COMPS:CAM:1,2008-08-10T21:00:00Z,27.7650,-82.6490,1011.6,1111122 
COMPS,ioos:station:USF.COMPS:CAM:1,2008-08-10T23:00:00Z,27.7650,-82.6490,1011.6,1111122 
COMPS,ioos:station:USF.COMPS:CAM:1,2008-08-11T00:00:00Z,27.7650,-82.6490,1012.46,1111122 
COMPS,ioos:station:USF.COMPS:CAM:1,2008-08-11T01:00:00Z,27.7650,-82.6490,1012.5,1111122 
COMPS,ioos:station:USF.COMPS:CAM:1,2008-08-11T02:00:00Z,27.7650,-82.6490,1013.06,1111122 
COMPS,ioos:station:USF.COMPS:CAM:1,2008-08-11T03:00:00Z,27.7650,-82.6490,1012.92,1111122 
COMPS,ioos:station:USF.COMPS:CAM:1,2008-08-11T04:00:00Z,27.7650,-82.6490,1013.14,1111122 
COMPS,ioos:station:USF.COMPS:CAM:1,2008-08-11T05:00:00Z,27.7650,-82.6490,1012.98,1111122 
COMPS,ioos:station:USF.COMPS:CAM:1,2008-08-11T06:00:00Z,27.7650,-82.6490,1012.57,1111122 
COMPS,ioos:station:USF.COMPS:CAM:1,2008-08-11T07:00:00Z,27.7650,-82.6490,1012.08,1111122 
COMPS,ioos:station:USF.COMPS:CAM:1,2008-08-11T08:00:00Z,27.7650,-82.6490,1011.82,1111122 
COMPS,ioos:station:USF.COMPS:CAM:1,2008-08-11T09:00:00Z,27.7650,-82.6490,1011.85,1111122 
COMPS,ioos:station:USF.COMPS:CAM:1,2008-08-11T10:00:00Z,27.7650,-82.6490,1012.36,1111122 
COMPS,ioos:station:USF.COMPS:CAM:1,2008-08-11T11:00:00Z,27.7650,-82.6490,1012.89,1111122 
COMPS,ioos:station:USF.COMPS:CAM:1,2008-08-11T12:00:00Z,27.7650,-82.6490,1013.45,1111122 
COMPS,ioos:station:USF.COMPS:CAM:1,2008-08-11T13:00:00Z,27.7650,-82.6490,1013.77,1111122 
COMPS,ioos:station:USF.COMPS:CAM:1,2008-08-11T14:00:00Z,27.7650,-82.6490,1013.81,1111122 
COMPS,ioos:station:USF.COMPS:CAM:1,2008-08-11T15:00:00Z,27.7650,-82.6490,1013.85,1111122 
COMPS,ioos:station:USF.COMPS:CAM:1,2008-08-11T16:00:00Z,27.7650,-82.6490,1013.76,1111122 
COMPS,ioos:station:USF.COMPS:CAM:1,2008-08-11T17:00:00Z,27.7650,-82.6490,1013.45,1111122 
COMPS,ioos:station:USF.COMPS:CAM:1,2008-08-11T18:00:00Z,27.7650,-82.6490,1013.37,1111122 
COMPS,ioos:station:USF.COMPS:CAM:1,2008-08-11T19:00:00Z,27.7650,-82.6490,1012.88,1111122 
COMPS,ioos:station:USF.COMPS:CAM:1,2008-08-11T20:00:00Z,27.7650,-82.6490,1012.61,1111122 
COMPS,ioos:station:USF.COMPS:CAM:1,2008-08-11T21:00:00Z,27.7650,-82.6490,1012.33,1111122 
COMPS,ioos:station:USF.COMPS:CAM:1,2008-08-11T22:00:00Z,27.7650,-82.6490,1012.29,1111122 
COMPS,ioos:station:USF.COMPS:CAM:1,2008-08-11T23:00:00Z,27.7650,-82.6490,1012.13,1111122 
COMPS,ioos:station:USF.COMPS:CAM:1,2008-08-12T00:00:00Z,27.7650,-82.6490,1012.36,1111122 
COMPS,ioos:station:USF.COMPS:CAM:1,2008-08-12T01:00:00Z,27.7650,-82.6490,1012.18,1111122 
COMPS,ioos:station:USF.COMPS:CAM:1,2008-08-12T02:00:00Z,27.7650,-82.6490,1012.64,1111122 
COMPS,ioos:station:USF.COMPS:CAM:1,2008-08-12T03:00:00Z,27.7650,-82.6490,1013.04,1111122 
COMPS,ioos:station:USF.COMPS:CAM:1,2008-08-12T04:00:00Z,27.7650,-82.6490,1013.08,1111122 
COMPS,ioos:station:USF.COMPS:CAM:1,2008-08-12T05:00:00Z,27.7650,-82.6490,1012.81,1111122 
COMPS,ioos:station:USF.COMPS:CAM:1,2008-08-12T06:00:00Z,27.7650,-82.6490,1012.37,1111122 
COMPS,ioos:station:USF.COMPS:CAM:1,2008-08-12T07:00:00Z,27.7650,-82.6490,1011.56,1111122 
COMPS,ioos:station:USF.COMPS:CAM:1,2008-08-12T08:00:00Z,27.7650,-82.6490,1011.2,1111122 
COMPS,ioos:station:USF.COMPS:CAM:1,2008-08-12T09:00:00Z,27.7650,-82.6490,1011.18,1111122 
COMPS,ioos:station:USF.COMPS:CAM:1,2008-08-12T10:00:00Z,27.7650,-82.6490,1011.42,1111122 
COMPS,ioos:station:USF.COMPS:CAM:1,2008-08-12T11:00:00Z,27.7650,-82.6490,1011.82,1111122 
COMPS,ioos:station:USF.COMPS:CAM:1,2008-08-12T12:00:00Z,27.7650,-82.6490,1012.24,1111122 
COMPS,ioos:station:USF.COMPS:CAM:1,2008-08-12T13:00:00Z,27.7650,-82.6490,1012.57,1111122 
COMPS,ioos:station:USF.COMPS:CAM:1,2008-08-12T14:00:00Z,27.7650,-82.6490,1012.5,1111122 
COMPS,ioos:station:USF.COMPS:CAM:1,2008-08-12T15:00:00Z,27.7650,-82.6490,1012.88,1111122 
COMPS,ioos:station:USF.COMPS:CAM:1,2008-08-12T16:00:00Z,27.7650,-82.6490,1012.9,1111122 
COMPS,ioos:station:USF.COMPS:CAM:1,2008-08-12T17:00:00Z,27.7650,-82.6490,1012.68,1111122 
COMPS,ioos:station:USF.COMPS:CAM:1,2008-08-12T18:00:00Z,27.7650,-82.6490,1012.34,1111122 
COMPS,ioos:station:USF.COMPS:CAM:1,2008-08-12T19:00:00Z,27.7650,-82.6490,1012.38,1111122 
COMPS,ioos:station:USF.COMPS:CAM:1,2008-08-12T20:00:00Z,27.7650,-82.6490,1011.68,1111122 
COMPS,ioos:station:USF.COMPS:CAM:1,2008-08-12T21:00:00Z,27.7650,-82.6490,1011.92,1111122 
COMPS,ioos:station:USF.COMPS:CAM:1,2008-08-12T22:00:00Z,27.7650,-82.6490,1012.4,1111122 
COMPS,ioos:station:USF.COMPS:CAM:1,2008-08-12T23:00:00Z,27.7650,-82.6490,1011.28,1111122 
COMPS,ioos:station:USF.COMPS:CAM:1,2008-08-13T00:00:00Z,27.7650,-82.6490,1011.68,1111122 
COMPS,ioos:station:USF.COMPS:CAM:1,2008-08-13T01:00:00Z,27.7650,-82.6490,1011.49,1111122 
COMPS,ioos:station:USF.COMPS:CAM:1,2008-08-13T02:00:00Z,27.7650,-82.6490,1011.82,1111122 
COMPS,ioos:station:USF.COMPS:CAM:1,2008-08-13T03:00:00Z,27.7650,-82.6490,1012.3,1111122 
COMPS,ioos:station:USF.COMPS:CAM:1,2008-08-13T04:00:00Z,27.7650,-82.6490,1012.16,1111122 
COMPS,ioos:station:USF.COMPS:CAM:1,2008-08-13T05:00:00Z,27.7650,-82.6490,1011.98,1111122 
COMPS,ioos:station:USF.COMPS:CAM:1,2008-08-13T06:00:00Z,27.7650,-82.6490,1011.45,1111122 
COMPS,ioos:station:USF.COMPS:CAM:1,2008-08-13T07:00:00Z,27.7650,-82.6490,1011.1,1111122 
COMPS,ioos:station:USF.COMPS:CAM:1,2008-08-13T08:00:00Z,27.7650,-82.6490,1010.76,1111122 
COMPS,ioos:station:USF.COMPS:CAM:1,2008-08-13T09:00:00Z,27.7650,-82.6490,1010.53,1111122 
COMPS,ioos:station:USF.COMPS:CAM:1,2008-08-13T10:00:00Z,27.7650,-82.6490,1010.88,1111122 
COMPS,ioos:station:USF.COMPS:CAM:1,2008-08-13T11:00:00Z,27.7650,-82.6490,1011.25,1111122 
COMPS,ioos:station:USF.COMPS:CAM:1,2008-08-13T12:00:00Z,27.7650,-82.6490,1011.84,1111122 
COMPS,ioos:station:USF.COMPS:CAM:1,2008-08-13T13:00:00Z,27.7650,-82.6490,1012.5,1111122 
COMPS,ioos:station:USF.COMPS:CAM:1,2008-08-13T14:00:00Z,27.7650,-82.6490,1012.7,1111122 
COMPS,ioos:station:USF.COMPS:CAM:1,2008-08-13T15:00:00Z,27.7650,-82.6490,1012.8,1111122 
COMPS,ioos:station:USF.COMPS:CAM:1,2008-08-13T16:00:00Z,27.7650,-82.6490,1013.02,1111122 
COMPS,ioos:station:USF.COMPS:CAM:1,2008-08-13T17:00:00Z,27.7650,-82.6490,1012.45,1111122 
COMPS,ioos:station:USF.COMPS:CAM:1,2008-08-13T18:00:00Z,27.7650,-82.6490,1011.84,1111122 
COMPS,ioos:station:USF.COMPS:CAM:1,2008-08-13T19:00:00Z,27.7650,-82.6490,1011.48,1111122 
COMPS,ioos:station:USF.COMPS:CAM:1,2008-08-13T20:00:00Z,27.7650,-82.6490,1011.32,1111122 
COMPS,ioos:station:USF.COMPS:CAM:1,2008-08-13T21:00:00Z,27.7650,-82.6490,1011.45,1111122 
COMPS,ioos:station:USF.COMPS:CAM:1,2008-08-13T22:00:00Z,27.7650,-82.6490,1011.4,1111122 
COMPS,ioos:station:USF.COMPS:CAM:1,2008-08-13T23:00:00Z,27.7650,-82.6490,1011.57,1111122 
COMPS,ioos:station:USF.COMPS:CAM:1,2008-08-14T00:00:00Z,27.7650,-82.6490,1011.65,1111122 
COMPS,ioos:station:USF.COMPS:CAM:1,2008-08-14T01:00:00Z,27.7650,-82.6490,1011.65,1111122 
COMPS,ioos:station:USF.COMPS:CAM:1,2008-08-14T02:00:00Z,27.7650,-82.6490,1012.26,1111122 
COMPS,ioos:station:USF.COMPS:CAM:1,2008-08-14T03:00:00Z,27.7650,-82.6490,1012.78,1111122 
COMPS,ioos:station:USF.COMPS:CAM:1,2008-08-14T04:00:00Z,27.7650,-82.6490,1013.14,1111122 
COMPS,ioos:station:USF.COMPS:CAM:1,2008-08-14T05:00:00Z,27.7650,-82.6490,1013.22,1111122 
COMPS,ioos:station:USF.COMPS:CAM:1,2008-08-14T06:00:00Z,27.7650,-82.6490,1012.44,1111122 
COMPS,ioos:station:USF.COMPS:CAM:1,2008-08-14T07:00:00Z,27.7650,-82.6490,1011.53,1111122 
COMPS,ioos:station:USF.COMPS:CAM:1,2008-08-14T08:00:00Z,27.7650,-82.6490,1011.21,1111122 
COMPS,ioos:station:USF.COMPS:CAM:1,2008-08-14T09:00:00Z,27.7650,-82.6490,1011.32,1111122 
COMPS,ioos:station:USF.COMPS:CAM:1,2008-08-14T10:00:00Z,27.7650,-82.6490,1011.26,1111122 
COMPS,ioos:station:USF.COMPS:CAM:1,2008-08-14T11:00:00Z,27.7650,-82.6490,1011.81,1111122 
COMPS,ioos:station:USF.COMPS:CAM:1,2008-08-14T12:00:00Z,27.7650,-82.6490,1012.48,1111122 
COMPS,ioos:station:USF.COMPS:CAM:1,2008-08-14T13:00:00Z,27.7650,-82.6490,1012.97,1111122 
COMPS,ioos:station:USF.COMPS:CAM:1,2008-08-14T14:00:00Z,27.7650,-82.6490,1013.48,1111122 
COMPS,ioos:station:USF.COMPS:CAM:1,2008-08-14T15:00:00Z,27.7650,-82.6490,1014.44,1111122 
COMPS,ioos:station:USF.COMPS:CAM:1,2008-08-14T16:00:00Z,27.7650,-82.6490,1014.97,1111122 
COMPS,ioos:station:USF.COMPS:CAM:1,2008-08-14T17:00:00Z,27.7650,-82.6490,1014.73,1111122 
COMPS,ioos:station:USF.COMPS:CAM:1,2008-08-14T18:00:00Z,27.7650,-82.6490,1014.74,1111122 
COMPS,ioos:station:USF.COMPS:CAM:1,2008-08-14T19:00:00Z,27.7650,-82.6490,1014.41,1111122 
COMPS,ioos:station:USF.COMPS:CAM:1,2008-08-14T20:00:00Z,27.7650,-82.6490,1013.64,1111122 
COMPS,ioos:station:USF.COMPS:CAM:1,2008-08-14T21:00:00Z,27.7650,-82.6490,1014.69,1111122 
COMPS,ioos:station:USF.COMPS:CAM:1,2008-08-14T22:00:00Z,27.7650,-82.6490,1014.58,1111122 
COMPS,ioos:station:USF.COMPS:CAM:1,2008-08-14T23:00:00Z,27.7650,-82.6490,1014.61,1111122 
COMPS,ioos:station:USF.COMPS:CAM:1,2008-08-15T00:00:00Z,27.7650,-82.6490,1014.96,1111122 
COMPS,ioos:station:USF.COMPS:CAM:1,2008-08-15T01:00:00Z,27.7650,-82.6490,1015.18,1111122 
COMPS,ioos:station:USF.COMPS:CAM:1,2008-08-15T02:00:00Z,27.7650,-82.6490,1015.65,1111122 
COMPS,ioos:station:USF.COMPS:CAM:1,2008-08-15T03:00:00Z,27.7650,-82.6490,1015.7,1111122 
COMPS,ioos:station:USF.COMPS:CAM:1,2008-08-15T04:00:00Z,27.7650,-82.6490,1015.61,1111122 
COMPS,ioos:station:USF.COMPS:CAM:1,2008-08-15T05:00:00Z,27.7650,-82.6490,1015.06,1111122 
COMPS,ioos:station:USF.COMPS:CAM:1,2008-08-15T06:00:00Z,27.7650,-82.6490,1014.76,1111122 
COMPS,ioos:station:USF.COMPS:CAM:1,2008-08-15T07:00:00Z,27.7650,-82.6490,1014.37,1111122 
COMPS,ioos:station:USF.COMPS:CAM:1,2008-08-15T08:00:00Z,27.7650,-82.6490,1014.37,1111122 
COMPS,ioos:station:USF.COMPS:CAM:1,2008-08-15T09:00:00Z,27.7650,-82.6490,1014.54,1111122 
COMPS,ioos:station:USF.COMPS:CAM:1,2008-08-15T10:00:00Z,27.7650,-82.6490,1014.6,1111122 
COMPS,ioos:station:USF.COMPS:CAM:1,2008-08-15T11:00:00Z,27.7650,-82.6490,1015.04,1111122 
COMPS,ioos:station:USF.COMPS:CAM:1,2008-08-15T12:00:00Z,27.7650,-82.6490,1015.77,1111122 
COMPS,ioos:station:USF.COMPS:CAM:1,2008-08-15T13:00:00Z,27.7650,-82.6490,1016.12,1111122 
COMPS,ioos:station:USF.COMPS:CAM:1,2008-08-15T14:00:00Z,27.7650,-82.6490,1016.69,1111122 
COMPS,ioos:station:USF.COMPS:CAM:1,2008-08-15T15:00:00Z,27.7650,-82.6490,1017.4,1111122 
COMPS,ioos:station:USF.COMPS:CAM:1,2008-08-15T16:00:00Z,27.7650,-82.6490,1017.64,1111122 
COMPS,ioos:station:USF.COMPS:CAM:1,2008-08-15T17:00:00Z,27.7650,-82.6490,1017.8,1111122 
COMPS,ioos:station:USF.COMPS:CAM:1,2008-08-15T18:00:00Z,27.7650,-82.6490,1016.96,1111122 
COMPS,ioos:station:USF.COMPS:CAM:1,2008-08-15T19:00:00Z,27.7650,-82.6490,1016.93,1111122 
COMPS,ioos:station:USF.COMPS:CAM:1,2008-08-15T20:00:00Z,27.7650,-82.6490,1016.36,1111122 
COMPS,ioos:station:USF.COMPS:CAM:1,2008-08-17T17:00:00Z,27.7650,-82.6490,1014.32,1111122 
COMPS,ioos:station:USF.COMPS:CAM:1,2008-08-17T18:00:00Z,27.7650,-82.6490,1013.29,1111122 
COMPS,ioos:station:USF.COMPS:CAM:1,2008-08-17T19:00:00Z,27.7650,-82.6490,1013.02,1111122 
COMPS,ioos:station:USF.COMPS:CAM:1,2008-08-17T23:00:00Z,27.7650,-82.6490,1012.09,1111122 
COMPS,ioos:station:USF.COMPS:CAM:1,2008-08-18T00:00:00Z,27.7650,-82.6490,1012.4,1111122 
COMPS,ioos:station:USF.COMPS:CAM:1,2008-08-18T01:00:00Z,27.7650,-82.6490,1012.44,1111122 
COMPS,ioos:station:USF.COMPS:CAM:1,2008-08-18T02:00:00Z,27.7650,-82.6490,1012.96,1111122 
COMPS,ioos:station:USF.COMPS:CAM:1,2008-08-18T03:00:00Z,27.7650,-82.6490,1013.61,1111122 
COMPS,ioos:station:USF.COMPS:CAM:1,2008-08-18T04:00:00Z,27.7650,-82.6490,1013.81,1111122 
COMPS,ioos:station:USF.COMPS:CAM:1,2008-08-18T05:00:00Z,27.7650,-82.6490,1013.24,1111122 
COMPS,ioos:station:USF.COMPS:CAM:1,2008-08-18T06:00:00Z,27.7650,-82.6490,1012.2,1111122 
COMPS,ioos:station:USF.COMPS:CAM:1,2008-08-18T07:00:00Z,27.7650,-82.6490,1011.36,1111122 
COMPS,ioos:station:USF.COMPS:CAM:1,2008-08-18T08:00:00Z,27.7650,-82.6490,1011.17,1111122 
COMPS,ioos:station:USF.COMPS:CAM:1,2008-08-18T09:00:00Z,27.7650,-82.6490,1011.41,1111122 
COMPS,ioos:station:USF.COMPS:CAM:1,2008-08-18T10:00:00Z,27.7650,-82.6490,1011.57,1111122 
COMPS,ioos:station:USF.COMPS:CAM:1,2008-08-18T11:00:00Z,27.7650,-82.6490,1011.77,1111122 
COMPS,ioos:station:USF.COMPS:CAM:1,2008-08-18T12:00:00Z,27.7650,-82.6490,1012.02,1111122 
COMPS,ioos:station:USF.COMPS:CAM:1,2008-08-18T13:00:00Z,27.7650,-82.6490,1012.36,1111122 
COMPS,ioos:station:USF.COMPS:CAM:1,2008-08-18T14:00:00Z,27.7650,-82.6490,1012.48,1111122 
COMPS,ioos:station:USF.COMPS:CAM:1,2008-08-18T15:00:00Z,27.7650,-82.6490,1012.6,1111122 
COMPS,ioos:station:USF.COMPS:CAM:1,2008-08-18T16:00:00Z,27.7650,-82.6490,1012.88,1111122 
COMPS,ioos:station:USF.COMPS:CAM:1,2008-08-18T17:00:00Z,27.7650,-82.6490,1012.45,1111122 
COMPS,ioos:station:USF.COMPS:CAM:1,2008-08-18T18:00:00Z,27.7650,-82.6490,1011.93,1111122 
COMPS,ioos:station:USF.COMPS:CAM:1,2008-08-18T19:00:00Z,27.7650,-82.6490,1011.17,1111122 
COMPS,ioos:station:USF.COMPS:CAM:1,2008-08-18T20:00:00Z,27.7650,-82.6490,1010.61,1111122 
COMPS,ioos:station:USF.COMPS:CAM:1,2008-08-18T21:00:00Z,27.7650,-82.6490,1010.26,1111122 
COMPS,ioos:station:USF.COMPS:CAM:1,2008-08-18T22:00:00Z,27.7650,-82.6490,1010.32,1111122 
COMPS,ioos:station:USF.COMPS:CAM:1,2008-08-18T23:00:00Z,27.7650,-82.6490,1010.52,1111122 
COMPS,ioos:station:USF.COMPS:CAM:1,2008-08-19T00:00:00Z,27.7650,-82.6490,1010.64,1111122 
COMPS,ioos:station:USF.COMPS:CAM:1,2008-08-19T01:00:00Z,27.7650,-82.6490,1010.7,1111122 
COMPS,ioos:station:USF.COMPS:CAM:1,2008-08-19T02:00:00Z,27.7650,-82.6490,1010.89,1111122 
COMPS,ioos:station:USF.COMPS:CAM:1,2008-08-19T03:00:00Z,27.7650,-82.6490,1011.06,1111122 
COMPS,ioos:station:USF.COMPS:CAM:1,2008-08-19T04:00:00Z,27.7650,-82.6490,1010.57,1111122 
COMPS,ioos:station:USF.COMPS:CAM:1,2008-08-19T05:00:00Z,27.7650,-82.6490,1010.6,1111122 
COMPS,ioos:station:USF.COMPS:CAM:1,2008-08-19T06:00:00Z,27.7650,-82.6490,1009.68,1111122 
COMPS,ioos:station:USF.COMPS:CAM:1,2008-08-19T07:00:00Z,27.7650,-82.6490,1008.9,1111122 
COMPS,ioos:station:USF.COMPS:CAM:1,2008-08-19T08:00:00Z,27.7650,-82.6490,1008.28,1111122 
COMPS,ioos:station:USF.COMPS:CAM:1,2008-08-19T09:00:00Z,27.7650,-82.6490,1008.52,1111122 
COMPS,ioos:station:USF.COMPS:CAM:1,2008-08-19T10:00:00Z,27.7650,-82.6490,1008.13,1111122 
COMPS,ioos:station:USF.COMPS:CAM:1,2008-08-19T11:00:00Z,27.7650,-82.6490,1008.28,1111122 
COMPS,ioos:station:USF.COMPS:CAM:1,2008-08-19T12:00:00Z,27.7650,-82.6490,1008.01,1111122 
COMPS,ioos:station:USF.COMPS:CAM:1,2008-08-19T13:00:00Z,27.7650,-82.6490,1008.17,1111122 
COMPS,ioos:station:USF.COMPS:CAM:1,2008-08-19T14:00:00Z,27.7650,-82.6490,1008.33,1111122 
COMPS,ioos:station:USF.COMPS:CAM:1,2008-08-19T15:00:00Z,27.7650,-82.6490,1008.46,1111122 
COMPS,ioos:station:USF.COMPS:CAM:1,2008-08-19T16:00:00Z,27.7650,-82.6490,1008.26,1111122 
COMPS,ioos:station:USF.COMPS:CAM:1,2008-08-19T17:00:00Z,27.7650,-82.6490,1008.06,1111122 
COMPS,ioos:station:USF.COMPS:CAM:1,2008-08-19T18:00:00Z,27.7650,-82.6490,1007.53,1111122 
COMPS,ioos:station:USF.COMPS:CAM:1,2008-08-19T19:00:00Z,27.7650,-82.6490,1007.34,1111122 
COMPS,ioos:station:USF.COMPS:CAM:1,2008-08-19T20:00:00Z,27.7650,-82.6490,1006.69,1111122 
COMPS,ioos:station:USF.COMPS:CAM:1,2008-08-19T22:00:00Z,27.7650,-82.6490,1006.36,1111122 
COMPS,ioos:station:USF.COMPS:CAM:1,2008-08-19T23:00:00Z,27.7650,-82.6490,1006.61,1111122 
COMPS,ioos:station:USF.COMPS:CAM:1,2008-08-20T00:00:00Z,27.7650,-82.6490,1007.16,1111122 
COMPS,ioos:station:USF.COMPS:CAM:1,2008-08-20T01:00:00Z,27.7650,-82.6490,1007.13,1111122 
COMPS,ioos:station:USF.COMPS:CAM:1,2008-08-20T02:00:00Z,27.7650,-82.6490,1007.57,1111122 
COMPS,ioos:station:USF.COMPS:CAM:1,2008-08-20T04:00:00Z,27.7650,-82.6490,1007.86,1111122 
COMPS,ioos:station:USF.COMPS:CAM:1,2008-08-20T05:00:00Z,27.7650,-82.6490,1007.64,1111122 
COMPS,ioos:station:USF.COMPS:CAM:1,2008-08-20T06:00:00Z,27.7650,-82.6490,1006.86,1111122 
COMPS,ioos:station:USF.COMPS:CAM:1,2008-08-20T07:00:00Z,27.7650,-82.6490,1006.57,1111122 
COMPS,ioos:station:USF.COMPS:CAM:1,2008-08-20T08:00:00Z,27.7650,-82.6490,1006.22,1111122 
COMPS,ioos:station:USF.COMPS:CAM:1,2008-08-20T09:00:00Z,27.7650,-82.6490,1006.24,1111122 
COMPS,ioos:station:USF.COMPS:CAM:1,2008-08-20T10:00:00Z,27.7650,-82.6490,1006.56,1111122 
COMPS,ioos:station:USF.COMPS:CAM:1,2008-08-20T11:00:00Z,27.7650,-82.6490,1006.94,1111122 
COMPS,ioos:station:USF.COMPS:CAM:1,2008-08-20T12:00:00Z,27.7650,-82.6490,1007.14,1111122 
COMPS,ioos:station:USF.COMPS:CAM:1,2008-08-20T13:00:00Z,27.7650,-82.6490,1007.76,1111122 
COMPS,ioos:station:USF.COMPS:CAM:1,2008-08-20T14:00:00Z,27.7650,-82.6490,1008.3,1111122 
COMPS,ioos:station:USF.COMPS:CAM:1,2008-08-20T15:00:00Z,27.7650,-82.6490,1008.7,1111122 
COMPS,ioos:station:USF.COMPS:CAM:1,2008-08-20T16:00:00Z,27.7650,-82.6490,1008.97,1111122 
COMPS,ioos:station:USF.COMPS:CAM:1,2008-08-20T17:00:00Z,27.7650,-82.6490,1009.2,1111122 
COMPS,ioos:station:USF.COMPS:CAM:1,2008-08-20T18:00:00Z,27.7650,-82.6490,1008.56,1111122 
COMPS,ioos:station:USF.COMPS:CAM:1,2008-08-20T19:00:00Z,27.7650,-82.6490,1008.48,1111122 
COMPS,ioos:station:USF.COMPS:CAM:1,2008-08-20T20:00:00Z,27.7650,-82.6490,1008.02,1111122 
COMPS,ioos:station:USF.COMPS:CAM:1,2008-08-20T21:00:00Z,27.7650,-82.6490,1007.89,1111122 
COMPS,ioos:station:USF.COMPS:CAM:1,2008-08-20T22:00:00Z,27.7650,-82.6490,1007.97,1111122 
COMPS,ioos:station:USF.COMPS:CAM:1,2008-08-20T23:00:00Z,27.7650,-82.6490,1008.02,1111122 
COMPS,ioos:station:USF.COMPS:CAM:1,2008-08-21T00:00:00Z,27.7650,-82.6490,1008.17,1111122 
COMPS,ioos:station:USF.COMPS:CAM:1,2008-08-21T01:00:00Z,27.7650,-82.6490,1008.5,1111122 
COMPS,ioos:station:USF.COMPS:CAM:1,2008-08-21T02:00:00Z,27.7650,-82.6490,1008.84,1111122 
COMPS,ioos:station:USF.COMPS:CAM:1,2008-08-21T03:00:00Z,27.7650,-82.6490,1009.24,1111122 
COMPS,ioos:station:USF.COMPS:CAM:1,2008-08-21T04:00:00Z,27.7650,-82.6490,1009.1,1111122 
COMPS,ioos:station:USF.COMPS:CAM:1,2008-08-21T05:00:00Z,27.7650,-82.6490,1008.98,1111122 
COMPS,ioos:station:USF.COMPS:CAM:1,2008-08-21T06:00:00Z,27.7650,-82.6490,1008.21,1111122 
COMPS,ioos:station:USF.COMPS:CAM:1,2008-08-21T07:00:00Z,27.7650,-82.6490,1008.05,1111122 
COMPS,ioos:station:USF.COMPS:CAM:1,2008-08-21T08:00:00Z,27.7650,-82.6490,1007.81,1111122 
COMPS,ioos:station:USF.COMPS:CAM:1,2008-08-21T09:00:00Z,27.7650,-82.6490,1007.9,1111122 
COMPS,ioos:station:USF.COMPS:CAM:1,2008-08-21T10:00:00Z,27.7650,-82.6490,1007.92,1111122 
COMPS,ioos:station:USF.COMPS:CAM:1,2008-08-21T11:00:00Z,27.7650,-82.6490,1008.3,1111122 
COMPS,ioos:station:USF.COMPS:CAM:1,2008-08-21T12:00:00Z,27.7650,-82.6490,1008.74,1111122 
COMPS,ioos:station:USF.COMPS:CAM:1,2008-08-21T13:00:00Z,27.7650,-82.6490,1009.14,1111122 
COMPS,ioos:station:USF.COMPS:CAM:1,2008-08-21T14:00:00Z,27.7650,-82.6490,1009.57,1111122 
COMPS,ioos:station:USF.COMPS:CAM:1,2008-08-21T15:00:00Z,27.7650,-82.6490,1009.4,1111122 
COMPS,ioos:station:USF.COMPS:CAM:1,2008-08-21T16:00:00Z,27.7650,-82.6490,1009.41,1111122 
COMPS,ioos:station:USF.COMPS:CAM:1,2008-08-21T17:00:00Z,27.7650,-82.6490,1009.57,1111122 
COMPS,ioos:station:USF.COMPS:CAM:1,2008-08-21T18:00:00Z,27.7650,-82.6490,1009.42,1111122 
COMPS,ioos:station:USF.COMPS:CAM:1,2008-08-21T19:00:00Z,27.7650,-82.6490,1008.76,1111122 
COMPS,ioos:station:USF.COMPS:CAM:1,2008-08-21T20:00:00Z,27.7650,-82.6490,1008.24,1111122 
COMPS,ioos:station:USF.COMPS:CAM:1,2008-08-21T21:00:00Z,27.7650,-82.6490,1008.21,1111122 
COMPS,ioos:station:USF.COMPS:CAM:1,2008-08-21T22:00:00Z,27.7650,-82.6490,1007.85,1111122 
COMPS,ioos:station:USF.COMPS:CAM:1,2008-08-21T23:00:00Z,27.7650,-82.6490,1007.5,1111122 
COMPS,ioos:station:USF.COMPS:CAM:1,2008-08-22T00:00:00Z,27.7650,-82.6490,1007.44,1111122 
COMPS,ioos:station:USF.COMPS:CAM:1,2008-08-22T01:00:00Z,27.7650,-82.6490,1007.74,1111122 
COMPS,ioos:station:USF.COMPS:CAM:1,2008-08-22T02:00:00Z,27.7650,-82.6490,1007.86,1111122 
COMPS,ioos:station:USF.COMPS:CAM:1,2008-08-22T03:00:00Z,27.7650,-82.6490,1008.32,1111122 
COMPS,ioos:station:USF.COMPS:CAM:1,2008-08-22T04:00:00Z,27.7650,-82.6490,1008.09,1111122 
COMPS,ioos:station:USF.COMPS:CAM:1,2008-08-22T05:00:00Z,27.7650,-82.6490,1007.42,1111122 
COMPS,ioos:station:USF.COMPS:CAM:1,2008-08-22T06:00:00Z,27.7650,-82.6490,1007.16,1111122 
COMPS,ioos:station:USF.COMPS:CAM:1,2008-08-22T07:00:00Z,27.7650,-82.6490,1006.9,1111122 
COMPS,ioos:station:USF.COMPS:CAM:1,2008-08-22T08:00:00Z,27.7650,-82.6490,1007.01,1111122 
COMPS,ioos:station:USF.COMPS:CAM:1,2008-08-22T09:00:00Z,27.7650,-82.6490,1006.56,1111122 
COMPS,ioos:station:USF.COMPS:CAM:1,2008-08-22T10:00:00Z,27.7650,-82.6490,1006.89,1111122 
COMPS,ioos:station:USF.COMPS:CAM:1,2008-08-22T11:00:00Z,27.7650,-82.6490,1007.34,1111122 
COMPS,ioos:station:USF.COMPS:CAM:1,2008-08-22T12:00:00Z,27.7650,-82.6490,1007.96,1111122 
COMPS,ioos:station:USF.COMPS:CAM:1,2008-08-22T13:00:00Z,27.7650,-82.6490,1008.17,1111122 
COMPS,ioos:station:USF.COMPS:CAM:1,2008-08-22T14:00:00Z,27.7650,-82.6490,1008.93,1111122 
COMPS,ioos:station:USF.COMPS:CAM:1,2008-08-22T15:00:00Z,27.7650,-82.6490,1009.32,1111122 
COMPS,ioos:station:USF.COMPS:CAM:1,2008-08-22T16:00:00Z,27.7650,-82.6490,1009.41,1111122 
COMPS,ioos:station:USF.COMPS:CAM:1,2008-08-22T17:00:00Z,27.7650,-82.6490,1009.18,1111122 
COMPS,ioos:station:USF.COMPS:CAM:1,2008-08-22T18:00:00Z,27.7650,-82.6490,1008.8,1111122 
COMPS,ioos:station:USF.COMPS:CAM:1,2008-08-22T19:00:00Z,27.7650,-82.6490,1008.33,1111122 
COMPS,ioos:station:USF.COMPS:CAM:1,2008-08-22T20:00:00Z,27.7650,-82.6490,1008.04,1111122 
COMPS,ioos:station:USF.COMPS:CAM:1,2008-08-22T21:00:00Z,27.7650,-82.6490,1007.9,1111122 
COMPS,ioos:station:USF.COMPS:CAM:1,2008-08-22T22:00:00Z,27.7650,-82.6490,1008.0,1111122 
COMPS,ioos:station:USF.COMPS:CAM:1,2008-08-22T23:00:00Z,27.7650,-82.6490,1008.21,1111122 
COMPS,ioos:station:USF.COMPS:CAM:1,2008-08-23T00:00:00Z,27.7650,-82.6490,1008.54,1111122 
COMPS,ioos:station:USF.COMPS:CAM:1,2008-08-23T01:00:00Z,27.7650,-82.6490,1008.89,1111122 
COMPS,ioos:station:USF.COMPS:CAM:1,2008-08-23T02:00:00Z,27.7650,-82.6490,1009.58,1111122 
COMPS,ioos:station:USF.COMPS:CAM:1,2008-08-23T03:00:00Z,27.7650,-82.6490,1010.17,1111122 
COMPS,ioos:station:USF.COMPS:CAM:1,2008-08-23T04:00:00Z,27.7650,-82.6490,1010.3,1111122 
COMPS,ioos:station:USF.COMPS:CAM:1,2008-08-23T05:00:00Z,27.7650,-82.6490,1010.05,1111122 
COMPS,ioos:station:USF.COMPS:CAM:1,2008-08-23T06:00:00Z,27.7650,-82.6490,1009.72,1111122 
COMPS,ioos:station:USF.COMPS:CAM:1,2008-08-23T07:00:00Z,27.7650,-82.6490,1009.52,1111122 
COMPS,ioos:station:USF.COMPS:CAM:1,2008-08-23T08:00:00Z,27.7650,-82.6490,1009.64,1111122 
COMPS,ioos:station:USF.COMPS:CAM:1,2008-08-23T09:00:00Z,27.7650,-82.6490,1010.04,1111122 
COMPS,ioos:station:USF.COMPS:CAM:1,2008-08-23T10:00:00Z,27.7650,-82.6490,1010.3,1111122 
COMPS,ioos:station:USF.COMPS:CAM:1,2008-08-23T11:00:00Z,27.7650,-82.6490,1010.73,1111122 
COMPS,ioos:station:USF.COMPS:CAM:1,2008-08-23T12:00:00Z,27.7650,-82.6490,1011.49,1111122 
COMPS,ioos:station:USF.COMPS:CAM:1,2008-08-23T14:00:00Z,27.7650,-82.6490,1012.17,1111122 
COMPS,ioos:station:USF.COMPS:CAM:1,2008-08-23T15:00:00Z,27.7650,-82.6490,1012.62,1111122 
COMPS,ioos:station:USF.COMPS:CAM:1,2008-08-23T16:00:00Z,27.7650,-82.6490,1012.97,1111122 
COMPS,ioos:station:USF.COMPS:CAM:1,2008-08-23T17:00:00Z,27.7650,-82.6490,1012.53,1111122 
COMPS,ioos:station:USF.COMPS:CAM:1,2008-08-23T18:00:00Z,27.7650,-82.6490,1012.08,1111122 
COMPS,ioos:station:USF.COMPS:CAM:1,2008-08-23T19:00:00Z,27.7650,-82.6490,1012.26,1111122 
COMPS,ioos:station:USF.COMPS:CAM:1,2008-08-23T20:00:00Z,27.7650,-82.6490,1011.21,1111122 
COMPS,ioos:station:USF.COMPS:CAM:1,2008-08-23T21:00:00Z,27.7650,-82.6490,1011.98,1111122 
COMPS,ioos:station:USF.COMPS:CAM:1,2008-08-23T22:00:00Z,27.7650,-82.6490,1011.81,1111122 
COMPS,ioos:station:USF.COMPS:CAM:1,2008-08-23T23:00:00Z,27.7650,-82.6490,1011.72,1111122 
COMPS,ioos:station:USF.COMPS:CAM:1,2008-08-24T00:00:00Z,27.7650,-82.6490,1011.62,1111122 
COMPS,ioos:station:USF.COMPS:CAM:1,2008-08-24T01:00:00Z,27.7650,-82.6490,1012.12,1111122 